HST
1 20580U 90037B   24185.82091077  .00005585  00000-0  25810-3 0  9990
2 20580  28.4674 233.6697 0002497 207.8976 152.1483 15.17965816679561
ISS (ZARYA)
1 25544U 98067A   24186.37246838  .00009107  00000-0  16974-3 0  9999
2 25544  51.6398 230.1803 0010464  29.4437  80.4610 15.49557559461213
CXO
1 25867U 99040B   24189.01719773  .00000371  00000-0  00000+0 0  9999
2 25867  41.5904 151.9627 8875050 297.7533   0.0063  0.37805279 25796